When you browse on this site, cookies collect data to enhance your experience and personalize the content and advertising you see.
Visit our Privacy Policy to learn more. By continuing to use the site, you agree to this use of cookies and data.
  • In Hungary
  • List of Countries
  • For 7 days
  • Water Temperature
  • Weather Map
  • News
  • Weather Widgets
  • user-avatar
    Login

    Hourly Weather Bogué

    Today, 19 November, Tuesday

    Time Temperature Precipitation Wind Pressure Humidity
    00:00 +29°C° 0 mm 3 mps 757 mmHg 22%
    01:00 +29°C° 0 mm 3 mps 757 mmHg 22%
    02:00 +28°C° 0 mm 3 mps 756 mmHg 22%
    03:00 +28°C° 0 mm 4 mps 756 mmHg 22%
    04:00 +28°C° 0 mm 4 mps 756 mmHg 22%
    05:00 +28°C° 0 mm 4 mps 757 mmHg 22%
    06:00 +29°C° 0 mm 4 mps 757 mmHg 21%
    07:00 +30°C° 0 mm 3 mps 757 mmHg 20%
    08:00 +30°C° 0 mm 3 mps 758 mmHg 20%
    09:00 +31°C° 0 mm 3 mps 757 mmHg 18%
    10:00 +33°C° 0 mm 3 mps 757 mmHg 17%
    11:00 +34°C° 0 mm 2 mps 757 mmHg 17%
    12:00 +35°C° 0 mm 2 mps 757 mmHg 16%
    13:00 +35°C° 0 mm 2 mps 756 mmHg 16%
    14:00 +36°C° 0 mm 2 mps 756 mmHg 16%
    15:00 +36°C° 0 mm 2 mps 756 mmHg 16%
    16:00 +35°C° 0 mm 3 mps 756 mmHg 17%
    17:00 +35°C° 0 mm 3 mps 756 mmHg 18%
    18:00 +34°C° 0 mm 3 mps 757 mmHg 18%
    19:00 +34°C° 0 mm 3 mps 757 mmHg 19%
    20:00 +32°C° 0 mm 2 mps 757 mmHg 19%
    21:00 +33°C° 0 mm 3 mps 757 mmHg 19%
    22:00 +32°C° 0 mm 4 mps 757 mmHg 19%
    23:00 +32°C° 0 mm 4 mps 757 mmHg 19%

    Tomorrow, 20 November, Wednesday

    Time Temperature Precipitation Wind Pressure Humidity
    00:00 +30°C° 0 mm 5 mps 757 mmHg 21%
    01:00 +29°C° 0 mm 5 mps 756 mmHg 23%
    02:00 +29°C° 0 mm 5 mps 756 mmHg 26%
    03:00 +28°C° 0 mm 5 mps 756 mmHg 28%
    04:00 +28°C° 0 mm 5 mps 756 mmHg 29%
    05:00 +28°C° 0 mm 5 mps 756 mmHg 31%
    06:00 +28°C° 0 mm 5 mps 757 mmHg 30%
    07:00 +29°C° 0 mm 5 mps 757 mmHg 29%
    08:00 +30°C° 0 mm 5 mps 758 mmHg 28%
    09:00 +32°C° 0 mm 5 mps 758 mmHg 25%
    10:00 +34°C° 0 mm 5 mps 757 mmHg 22%
    11:00 +36°C° 0 mm 5 mps 757 mmHg 19%
    12:00 +36°C° 0 mm 4 mps 757 mmHg 18%
    13:00 +37°C° 0 mm 4 mps 756 mmHg 17%
    14:00 +38°C° 0 mm 4 mps 756 mmHg 16%
    15:00 +37°C° 0 mm 3 mps 756 mmHg 16%
    16:00 +37°C° 0 mm 3 mps 756 mmHg 17%
    17:00 +36°C° 0 mm 3 mps 756 mmHg 17%
    18:00 +35°C° 0 mm 3 mps 756 mmHg 18%
    19:00 +34°C° 0 mm 3 mps 757 mmHg 19%
    20:00 +33°C° 0 mm 4 mps 757 mmHg 19%
    21:00 +32°C° 0 mm 4 mps 757 mmHg 20%
    22:00 +32°C° 0 mm 4 mps 757 mmHg 20%
    23:00 +30°C° 0 mm 4 mps 757 mmHg 20%

    Day after tomorrow, 21 November, Thursday

    Time Temperature Precipitation Wind Pressure Humidity
    00:00 +29°C° 0 mm 4 mps 757 mmHg 20%
    01:00 +29°C° 0 mm 4 mps 757 mmHg 20%
    02:00 +28°C° 0 mm 4 mps 756 mmHg 20%
    03:00 +28°C° 0 mm 4 mps 756 mmHg 20%
    04:00 +28°C° 0 mm 4 mps 756 mmHg 20%
    05:00 +27°C° 0 mm 4 mps 756 mmHg 20%
    06:00 +28°C° 0 mm 4 mps 756 mmHg 19%
    07:00 +29°C° 0 mm 4 mps 757 mmHg 18%
    08:00 +30°C° 0 mm 4 mps 757 mmHg 16%
    09:00 +33°C° 0 mm 4 mps 757 mmHg 15%
    10:00 +35°C° 0 mm 3 mps 757 mmHg 14%
    11:00 +37°C° 0 mm 3 mps 757 mmHg 13%
    12:00 +37°C° 0 mm 2 mps 756 mmHg 14%
    13:00 +38°C° 0 mm 2 mps 756 mmHg 14%
    14:00 +39°C° 0 mm 1 mps 755 mmHg 15%
    15:00 +38°C° 0 mm 2 mps 755 mmHg 16%
    16:00 +38°C° 0 mm 2 mps 755 mmHg 17%
    17:00 +37°C° 0 mm 2 mps 755 mmHg 18%
    18:00 +36°C° 0 mm 3 mps 755 mmHg 18%
    19:00 +34°C° 0 mm 4 mps 756 mmHg 19%
    20:00 +33°C° 0 mm 5 mps 756 mmHg 20%
    21:00 +32°C° 0 mm 5 mps 756 mmHg 19%
    22:00 +32°C° 0 mm 5 mps 756 mmHg 18%
    23:00 +30°C° 0 mm 5 mps 756 mmHg 17%

    22 November, Friday

    Time Temperature Precipitation Wind Pressure Humidity
    00:00 +29°C° 0 mm 5 mps 756 mmHg 18%
    01:00 +29°C° 0 mm 4 mps 756 mmHg 18%
    02:00 +28°C° 0 mm 4 mps 756 mmHg 18%
    03:00 +28°C° 0 mm 4 mps 756 mmHg 18%
    04:00 +28°C° 0 mm 4 mps 756 mmHg 19%
    05:00 +27°C° 0 mm 4 mps 756 mmHg 19%
    06:00 +28°C° 0 mm 5 mps 756 mmHg 18%
    07:00 +29°C° 0 mm 5 mps 757 mmHg 17%
    08:00 +30°C° 0 mm 5 mps 757 mmHg 16%
    09:00 +33°C° 0 mm 4 mps 757 mmHg 15%
    10:00 +35°C° 0 mm 4 mps 757 mmHg 14%
    11:00 +37°C° 0 mm 3 mps 757 mmHg 13%
    12:00 +38°C° 0 mm 3 mps 756 mmHg 13%
    13:00 +38°C° 0 mm 2 mps 756 mmHg 13%
    14:00 +39°C° 0 mm 1 mps 755 mmHg 13%
    15:00 +37°C° 0 mm 1 mps 755 mmHg 14%
    16:00 +37°C° 0 mm 2 mps 755 mmHg 15%
    17:00 +37°C° 0 mm 2 mps 755 mmHg 17%
    18:00 +35°C° 0 mm 3 mps 755 mmHg 18%
    19:00 +34°C° 0 mm 4 mps 756 mmHg 19%
    20:00 +33°C° 0 mm 5 mps 756 mmHg 20%
    21:00 +32°C° 0 mm 5 mps 757 mmHg 20%
    22:00 +30°C° 0 mm 5 mps 757 mmHg 19%
    23:00 +30°C° 0 mm 5 mps 757 mmHg 19%

    23 November, Saturday

    Time Temperature Precipitation Wind Pressure Humidity
    00:00 +29°C° 0 mm 4 mps 756 mmHg 19%
    01:00 +29°C° 0 mm 4 mps 756 mmHg 19%
    02:00 +28°C° 0 mm 4 mps 756 mmHg 20%
    03:00 +28°C° 0 mm 4 mps 756 mmHg 19%
    04:00 +27°C° 0 mm 4 mps 756 mmHg 19%
    05:00 +27°C° 0 mm 4 mps 756 mmHg 19%
    06:00 +28°C° 0 mm 4 mps 756 mmHg 18%
    07:00 +29°C° 0 mm 4 mps 757 mmHg 17%
    08:00 +30°C° 0 mm 4 mps 757 mmHg 16%
    09:00 +33°C° 0 mm 4 mps 757 mmHg 15%
    10:00 +35°C° 0 mm 3 mps 757 mmHg 15%
    11:00 +37°C° 0 mm 3 mps 757 mmHg 14%
    12:00 +38°C° 0 mm 2 mps 756 mmHg 14%
    13:00 +38°C° 0 mm 2 mps 755 mmHg 14%
    14:00 +39°C° 0 mm 1 mps 755 mmHg 14%
    15:00 +37°C° 0 mm 1 mps 755 mmHg 15%
    16:00 +37°C° 0 mm 2 mps 755 mmHg 16%
    17:00 +36°C° 0 mm 2 mps 755 mmHg 17%
    18:00 +35°C° 0 mm 3 mps 755 mmHg 17%
    19:00 +34°C° 0 mm 4 mps 756 mmHg 18%
    20:00 +33°C° 0 mm 4 mps 756 mmHg 19%
    21:00 +32°C° 0 mm 4 mps 756 mmHg 18%
    22:00 +30°C° 0 mm 4 mps 756 mmHg 17%
    23:00 +30°C° 0 mm 4 mps 756 mmHg 16%

    24 November, Sunday

    Time Temperature Precipitation Wind Pressure Humidity
    00:00 +29°C° 0 mm 4 mps 756 mmHg 16%
    01:00 +29°C° 0 mm 4 mps 755 mmHg 16%
    02:00 +28°C° 0 mm 4 mps 755 mmHg 16%
    03:00 +28°C° 0 mm 4 mps 755 mmHg 16%
    04:00 +27°C° 0 mm 4 mps 755 mmHg 17%
    05:00 +27°C° 0 mm 4 mps 755 mmHg 17%
    06:00 +28°C° 0 mm 4 mps 756 mmHg 16%
    07:00 +29°C° 0 mm 4 mps 756 mmHg 15%
    08:00 +30°C° 0 mm 5 mps 757 mmHg 14%
    09:00 +33°C° 0 mm 4 mps 757 mmHg 13%
    10:00 +35°C° 0 mm 3 mps 756 mmHg 13%
    11:00 +37°C° 0 mm 3 mps 756 mmHg 12%
    12:00 +38°C° 0 mm 2 mps 756 mmHg 12%
    13:00 +39°C° 0 mm 1 mps 755 mmHg 12%
    14:00 +37°C° 0 mm 0 mps 754 mmHg 12%
    15:00 +39°C° 0 mm 1 mps 754 mmHg 13%
    16:00 +37°C° 0 mm 1 mps 754 mmHg 14%
    17:00 +37°C° 0 mm 2 mps 754 mmHg 15%
    18:00 +35°C° 0 mm 2 mps 755 mmHg 16%
    19:00 +34°C° 0 mm 3 mps 755 mmHg 16%
    20:00 +33°C° 0 mm 4 mps 756 mmHg 17%
    21:00 +32°C° 0 mm 4 mps 756 mmHg 17%
    22:00 +30°C° 0 mm 4 mps 756 mmHg 17%
    23:00 +30°C° 0 mm 4 mps 756 mmHg 17%
    Show more